FW3129 Weather Reports


Display with metric or nautical units.
time (UTC)temp
F
wind
direction
speed
MPH
gust
MPH
rain 1hr
in
rain 24hr
in
rain mn
in
humidity
%
barometer
mb
20260506174534 86 81 2.0 9.0 0.00 0.00 0.00 74 1018.8
20260506173029 85 86 2.0 9.0 0.00 0.00 0.00 76 1019.0
20260506171532 84 89 4.0 8.0 0.00 0.00 0.00 77 1019.2
20260506170031 85 114 3.0 10.0 0.00 0.00 0.00 76 1019.3
20260506164545 85 59 3.0 9.0 0.00 0.00 0.00 75 1019.3
20260506163030 86 110 3.0 9.0 0.00 0.00 0.00 74 1019.5
20260506161528 85 127 1.0 7.0 0.00 0.00 0.00 76 1019.5
20260506160030 85 170 1.0 8.0 0.00 0.00 0.00 77 1019.5
20260506154529 84 117 3.0 7.0 0.00 0.00 0.00 77 1019.5
20260506153030 84 148 2.0 6.0 0.00 0.00 0.00 77 1019.4
20260506151530 84 140 4.0 8.0 0.00 0.00 0.00 77 1019.4
20260506150030 85 53 2.0 8.0 0.00 0.00 0.00 77 1019.3
20260506144530 84 210 4.0 9.0 0.00 0.00 0.00 75 1019.1
20260506143031 85 148 2.0 6.0 0.00 0.00 0.00 76 1019.1
20260506141533 83 144 2.0 6.0 0.00 0.00 0.00 78 1019.0
20260506140030 83 110 2.0 7.0 0.00 0.00 0.00 79 1018.9
20260506134527 83 82 1.0 7.0 0.00 0.00 0.00 79 1018.9
20260506133029 83 93 1.0 5.0 0.00 0.00 0.00 79 1018.7
20260506131528 82 85 1.0 6.0 0.00 0.00 0.00 82 1018.7
20260506130028 81 92 1.0 5.0 0.00 0.00 0.00 82 1018.7
20260506124530 80 89 1.0 7.0 0.00 0.00 0.00 84 1018.8
20260506123028 80 108 0.0 4.0 0.00 0.00 0.00 85 1018.7
20260506121529 80 129 0.0 4.0 0.00 0.00 0.00 85 1018.5
20260506120048 79 91 1.0 4.0 0.00 0.00 0.00 85 1018.4
20260506114532 79 75 0.0 5.0 0.00 0.00 0.00 86 1018.3
20260506113028 78 95 0.0 2.0 0.00 0.00 0.00 88 1018.2
20260506111527 77 0 0.0 1.0 0.00 0.00 0.00 89 1018.1
20260506110030 76 0 0.0 2.0 0.00 0.00 0.00 90 1017.9
20260506104538 76 0 0.0 0.0 0.00 0.00 0.00 90 1017.8
20260506103039 76 0 0.0 2.0 0.00 0.00 0.00 90 1017.6
20260506101528 76 0 0.0 1.0 0.00 0.00 0.00 90 1017.7
20260506100027 76 0 0.0 2.0 0.00 0.00 0.00 90 1017.5
20260506094528 76 0 0.0 1.0 0.00 0.00 0.00 90 1017.5
20260506093028 76 0 0.0 2.0 0.00 0.00 0.00 89 1017.4
20260506091528 76 0 0.0 2.0 0.00 0.00 0.00 90 1017.4
20260506090028 76 0 0.0 1.0 0.00 0.00 0.00 89 1017.2
20260506084603 76 106 0.0 1.0 0.00 0.00 0.00 89 1017.2
20260506083028 76 96 0.0 1.0 0.00 0.00 0.00 89 1017.0
20260506081538 76 0 0.0 2.0 0.00 0.00 0.00 89 1017.1
20260506073029 76 75 0.0 2.0 0.00 0.00 0.00 88 1017.1
20260506071527 77 75 0.0 2.0 0.00 0.00 0.00 88 1017.1
20260506061528 77 11 0.0 4.0 0.00 0.00 0.00 87 1017.5
20260506044536 78 33 1.0 4.0 0.00 0.00 0.00 86 1018.0
20260506043028 78 46 1.0 7.0 0.00 0.00 0.00 86 1018.2
20260506041529 78 49 1.0 6.0 0.00 0.00 0.00 85 1018.2
20260506040034 78 83 1.0 6.0 0.00 0.00 0.00 84 1018.0
20260506034529 78 0 0.0 6.0 0.00 0.00 0.00 84 1018.0
20260506033029 78 90 2.0 6.0 0.00 0.00 0.00 84 1018.1
20260506031539 78 79 2.0 8.0 0.00 0.00 0.00 85 1018.0
20260506030028 78 114 2.0 7.0 0.00 0.00 0.00 84 1017.8
20260506024531 78 86 0.0 6.0 0.00 0.00 0.00 84 1017.7
20260506023049 78 67 2.0 7.0 0.00 0.00 0.00 84 1017.5
20260506021550 78 43 1.0 9.0 0.00 0.00 0.00 83 1017.4
20260506020028 78 78 1.0 10.0 0.00 0.00 0.00 84 1017.2
20260506014529 78 92 4.0 10.0 0.00 0.00 0.00 83 1016.9
20260506013034 79 51 4.0 12.0 0.00 0.00 0.00 83 1017.0
20260506011531 79 75 4.0 11.0 0.00 0.00 0.00 83 1016.8
20260506010029 79 35 2.0 11.0 0.00 0.00 0.00 83 1016.9
20260506004529 79 54 2.0 10.0 0.00 0.00 0.00 83 1016.7
20260506003030 80 86 1.0 9.0 0.00 0.00 0.00 82 1016.8
20260506001529 79 0 1.0 11.0 0.00 0.00 0.00 83 1016.7
20260506000030 80 37 2.0 8.0 0.00 0.00 0.00 83 1016.4
20260505234531 80 75 3.0 9.0 0.00 0.00 0.00 81 1016.2
20260505233028 80 94 2.0 9.0 0.00 0.00 0.00 81 1016.0
20260505231546 81 98 1.0 8.0 0.00 0.00 0.00 80 1015.7
20260505230030 81 86 3.0 7.0 0.00 0.00 0.00 79 1015.9
20260505224528 81 61 3.0 8.0 0.00 0.00 0.00 78 1016.1
20260505223030 82 76 2.0 8.0 0.00 0.00 0.00 76 1015.9
20260505221530 82 89 3.0 12.0 0.00 0.00 0.00 76 1015.8
20260505220031 83 79 3.0 12.0 0.00 0.00 0.00 76 1015.9
20260505214534 83 100 3.0 10.0 0.00 0.00 0.00 76 1015.7
20260505213036 83 77 3.0 9.0 0.00 0.00 0.00 76 1015.5
20260505211528 83 117 3.0 8.0 0.00 0.00 0.00 75 1015.5
20260505210029 85 37 1.0 11.0 0.00 0.00 0.00 74 1015.5
20260505204528 84 139 2.0 9.0 0.00 0.00 0.00 74 1015.5
20260505203042 83 208 5.0 11.0 0.00 0.00 0.00 76 1015.5
20260505201533 84 100 3.0 8.0 0.00 0.00 0.00 74 1015.7
20260505200030 84 88 3.0 9.0 0.00 0.00 0.00 75 1015.6
20260505194528 84 75 4.0 10.0 0.00 0.00 0.00 73 1015.8
20260505193033 85 94 3.0 10.0 0.00 0.00 0.00 72 1015.7
20260505191531 84 107 2.0 9.0 0.00 0.00 0.00 77 1016.1
20260505190033 84 132 3.0 13.0 0.00 0.00 0.00 77 1016.1
20260505184534 84 127 4.0 12.0 0.00 0.01 0.00 76 1016.2
20260505183029 84 79 2.0 12.0 0.00 0.01 0.00 78 1016.2
20260505181533 84 66 3.0 12.0 0.00 0.01 0.00 77 1016.4
20260505180028 84 91 4.0 11.0 0.00 0.01 0.00 76 1016.4